Amsterdam, Netherlands

10:50 AM CEST on October 17, 2019 (GMT +0200)
Schiphol

Weather History for EHAM - August, 2019

Change the Weather History Date:

Saturday, August 3, 2019

  Actual Average Record
Temperature  
Mean Temperature 65 °F -  
Max Temperature 71 °F 68 °F 86 °F (2018)
Min Temperature 59 °F 55 °F 48 °F (1998)
Growing Degree Days 15 (Base 50)    
Moisture  
Dew Point 57 °F    
Average Humidity 75    
Maximum Humidity 94    
Minimum Humidity 53    
Precipitation  
Precipitation 0.00 in - - ()
Sea Level Pressure  
Sea Level Pressure 30.07 in    
Wind  
Wind Speed 7 mph ()    
Max Wind Speed 13 mph    
Max Gust Speed -    
Visibility 6.9 miles    
Events Rain    
Averages and records for this station are not official NWS values.
T = Trace of Precipitation, MM = Missing Value Source: Averaged Metar Reports

Daily Weather History Graph

Daily Weather History Graph

Search for Another Location

Airport or City:

Astronomy

Aug. 03, 2019 Rise Set
Actual Time 6:04 AM CEST 9:29 PM CEST
Civil Twilight 5:22 AM CEST 10:10 PM CEST
Nautical Twilight 4:26 AM CEST 11:05 PM CEST
Astronomical Twilight 3:06 AM CEST 12:23 AM CEST
Moon 8:52 AM CEST (8/3) 11:04 PM CEST (8/3)
Length of Visible Light 16h 47m
Length of Day
15h 25m
Waxing Crescent, 8% of the Moon is Illuminated
Aug 3
Waxing Crescent
Aug 7
First Quarter
Aug 15
Full
Aug 23
Last Quarter
Aug 30
New

Hourly Weather History & Observations

Time (CEST) Temp. Dew Point Humidity Pressure Visibility Wind Dir Wind Speed Gust Speed Precip Events Conditions
12:00 AM 64 °F 61 °F 85% 30.05 in 12 mi North 8.9 mph - -   Partly Cloudy
12:25 AM 64.4 °F 60.8 °F 88% 30.04 in 6.2 mi NNW 9.2 mph - N/A   Scattered Clouds
12:55 AM 64.4 °F 59.0 °F 83% 30.04 in 6.2 mi NNW 6.9 mph - N/A   Scattered Clouds
1:25 AM 62.6 °F 59.0 °F 88% 30.04 in 6.2 mi North 8.1 mph - N/A   Scattered Clouds
1:55 AM 60.8 °F 59.0 °F 94% 30.04 in 6.2 mi NNW 5.8 mph - N/A   Partly Cloudy
2:00 AM 61 °F 58 °F 87% 30.06 in 15 mi NNW 6.7 mph - -   Partly Cloudy
2:25 AM 60.8 °F 59.0 °F 94% 30.04 in 6.2 mi NNW 5.8 mph - N/A   Partly Cloudy
2:55 AM 60.8 °F 57.2 °F 88% 30.04 in 6.2 mi North 5.8 mph - N/A   Partly Cloudy
3:00 AM 60 °F 58 °F 90% 30.05 in 15 mi North 6.7 mph - -   Partly Cloudy
3:25 AM 60.8 °F 59.0 °F 94% 30.04 in 6.2 mi NNW 8.1 mph - N/A   Partly Cloudy
3:55 AM 62.6 °F 57.2 °F 82% 30.04 in 6.2 mi North 6.9 mph - N/A   Mostly Cloudy
4:25 AM 62.6 °F 59.0 °F 88% 30.04 in 6.2 mi NNW 6.9 mph - N/A   Mostly Cloudy
4:55 AM 64.4 °F 57.2 °F 77% 30.04 in 6.2 mi North 9.2 mph - N/A   Mostly Cloudy
5:25 AM 62.6 °F 55.4 °F 77% 30.04 in 6.2 mi North 8.1 mph - N/A   Scattered Clouds
5:55 AM 60.8 °F 55.4 °F 82% 30.04 in 6.2 mi North 4.6 mph - N/A   Scattered Clouds
6:00 AM 59 °F 55 °F 84% 30.06 in 25 mi NNW 4.5 mph - -   Partly Cloudy
6:25 AM 60.8 °F 57.2 °F 88% 30.04 in 6.2 mi NNW 4.6 mph - N/A   Mostly Cloudy
6:55 AM 62.6 °F 57.2 °F 82% 30.04 in 6.2 mi NW 4.6 mph - N/A   Mostly Cloudy
7:25 AM 64.4 °F 57.2 °F 77% 30.06 in 6.2 mi NNW 5.8 mph - N/A   Mostly Cloudy
7:55 AM 64.4 °F 57.2 °F 77% 30.06 in 6.2 mi North 9.2 mph - N/A   Scattered Clouds
8:00 AM 65 °F 57 °F 69% 30.07 in 19 mi North 6.7 mph - -   Partly Cloudy
8:25 AM 64.4 °F 57.2 °F 77% 30.06 in 6.2 mi North 6.9 mph - N/A   Scattered Clouds
8:55 AM 66.2 °F 57.2 °F 73% 30.06 in 6.2 mi North 9.2 mph - N/A   Mostly Cloudy
9:00 AM 66 °F 57 °F 65% 30.08 in 22 mi NNW 8.9 mph - -   Partly Cloudy
9:25 AM 66.2 °F 57.2 °F 73% 30.06 in 6.2 mi NNW 9.2 mph - N/A   Mostly Cloudy
9:55 AM 66.2 °F 57.2 °F 73% 30.06 in 6.2 mi NNW 8.1 mph - N/A   Mostly Cloudy
10:00 AM 65 °F 57 °F 67% 30.09 in 25 mi NNW 8.9 mph - -   Partly Cloudy
10:25 AM 66.2 °F 57.2 °F 73% 30.06 in 6.2 mi NNW 9.2 mph - N/A   Mostly Cloudy
10:55 AM 68.0 °F 57.2 °F 68% 30.06 in 6.2 mi NNW 6.9 mph - N/A   Mostly Cloudy
11:25 AM 68.0 °F 55.4 °F 64% 30.09 in 6.2 mi NNW 11.5 mph - N/A   Mostly Cloudy
11:55 AM 66.2 °F 57.2 °F 73% 30.09 in 6.2 mi NNW 10.4 mph - N/A   Mostly Cloudy
12:00 PM 67 °F 57 °F 63% 30.10 in 25 mi NNW 11.2 mph - -   Partly Cloudy
12:25 PM 66.2 °F 57.2 °F 73% 30.09 in 6.2 mi NW 10.4 mph - N/A   Mostly Cloudy
12:55 PM 68.0 °F 57.2 °F 68% 30.09 in 6.2 mi NNW 9.2 mph - N/A   Mostly Cloudy
1:25 PM 68.0 °F 57.2 °F 68% 30.09 in 6.2 mi NNW 9.2 mph - N/A   Mostly Cloudy
1:55 PM 68.0 °F 57.2 °F 68% 30.09 in 6.2 mi NW 10.4 mph - N/A   Mostly Cloudy
2:00 PM 69 °F 58 °F 61% 30.11 in 22 mi NNW 8.9 mph - -   Partly Cloudy
2:25 PM 68.0 °F 59.0 °F 73% 30.09 in 6.2 mi NW 12.7 mph - N/A Rain Light Rain
2:55 PM 66.2 °F 57.2 °F 73% 30.09 in 6.2 mi NNW 12.7 mph - N/A   Mostly Cloudy
3:25 PM 66.2 °F 59.0 °F 78% 30.09 in 6.2 mi NW 11.5 mph - N/A   Mostly Cloudy
3:55 PM 68.0 °F 59.0 °F 73% 30.09 in 6.2 mi NW 10.4 mph - N/A   Mostly Cloudy
4:00 PM 67 °F 59 °F 68% 30.11 in 22 mi NW 11.2 mph - -   Partly Cloudy
4:25 PM 66.2 °F 57.2 °F 73% 30.09 in 6.2 mi NW 10.4 mph - N/A   Mostly Cloudy
4:55 PM 68.0 °F 59.0 °F 73% 30.09 in 6.2 mi NW 9.2 mph - N/A   Mostly Cloudy
5:00 PM 68 °F 58 °F 63% 30.10 in 22 mi NW 8.9 mph - -   Partly Cloudy
5:25 PM 69.8 °F 57.2 °F 64% 30.09 in 6.2 mi NW 6.9 mph - N/A   Mostly Cloudy
5:55 PM 71.6 °F 57.2 °F 60% 30.06 in 6.2 mi NW 8.1 mph - N/A   Scattered Clouds
6:00 PM 71 °F 58 °F 53% 30.09 in 22 mi NNW 6.7 mph - -   Partly Cloudy
6:25 PM 69.8 °F 55.4 °F 60% 30.06 in 6.2 mi North 8.1 mph - N/A   Partly Cloudy
6:55 PM 69.8 °F 55.4 °F 60% 30.06 in 6.2 mi NNW 9.2 mph - N/A   Scattered Clouds
7:00 PM 70 °F 57 °F 53% 30.08 in 28 mi NW 8.9 mph - -   Partly Cloudy
7:25 PM 69.8 °F 55.4 °F 60% 30.06 in 6.2 mi NNW 9.2 mph - N/A   Scattered Clouds
7:55 PM 68.0 °F 55.4 °F 64% 30.06 in 6.2 mi NW 10.4 mph - N/A   Scattered Clouds
8:00 PM 68 °F 56 °F 56% 30.07 in 25 mi NNW 8.9 mph - -   Partly Cloudy
8:25 PM 66.2 °F 55.4 °F 68% 30.06 in 6.2 mi NW 8.1 mph - N/A   Partly Cloudy
8:55 PM 64.4 °F 55.4 °F 73% 30.06 in 6.2 mi NNW 5.8 mph - N/A   Partly Cloudy
9:00 PM 65 °F 56 °F 64% 30.07 in 28 mi NNW 6.7 mph - -   Partly Cloudy
9:25 PM 62.6 °F 55.4 °F 77% 30.06 in 6.2 mi NNW 5.8 mph - N/A   Partly Cloudy
9:55 PM 62.6 °F 55.4 °F 77% 30.06 in 6.2 mi NNW 4.6 mph - N/A   Partly Cloudy
10:25 PM 62.6 °F 55.4 °F 77% 30.06 in 6.2 mi North 3.5 mph - N/A   Partly Cloudy
10:55 PM 59.0 °F 55.4 °F 88% 30.06 in 6.2 mi NNW 2.3 mph - N/A   Partly Cloudy
11:00 PM 60 °F 56 °F 81% 30.07 in 28 mi NNW 2.2 mph - -   Mostly Cloudy
11:25 PM 59.0 °F 55.4 °F 88% 30.06 in 6.2 mi NNW 2.3 mph - N/A   Partly Cloudy
11:55 PM 59.0 °F 57.2 °F 94% 30.06 in - North 1.2 mph - N/A   Clear